Weather History for Chipley, FL

Change the Weather History Date:

Sunday, December 23, 2012

  Actual Average (KMAI) Record (KMAI)
Temperature  
Mean Temperature 60 °F 51 °F  
Max Temperature 68 °F 62 °F 73 °F (2006)
Min Temperature 51 °F 40 °F 24 °F (2000)
Degree Days  
Heating Degree Days 6    
Month to date heating degree days  
Since 1 July heating degree days  
Cooling Degree Days 0    
Month to date cooling degree days  
Year to date cooling degree days  
Growing Degree Days 10 (Base 50)    
Moisture  
Dew Point 49 °F    
Average Humidity 66    
Maximum Humidity 83    
Minimum Humidity 54    
Precipitation  
Precipitation 0.00 in 0.12 in 1.68 in (2013)
Month to date precipitation 3.02  
Year to date precipitation 52.69  
Sea Level Pressure  
Sea Level Pressure 30.12 in    
Wind  
Wind Speed 5 mph (SSE)    
Max Wind Speed 13 mph    
Max Gust Speed 20 mph    
Visibility 10 miles    
Events      
T = Trace of Precipitation, MM = Missing Value Source: NWS Daily Summary

Daily Weather History Graph

Daily Weather History Graph

Search for Another Location

Airport:

Trip Planner

Search our weather history database for the weather conditions in past years. The results will help you decide how hot, cold, wet, or windy it might be!

Date:

Astronomy

Dec. 23, 2012 Rise Set
Actual Time 6:37 AM CST 4:46 PM CST
Civil Twilight 6:10 AM CST 5:13 PM CST
Nautical Twilight 5:40 AM CST 5:43 PM CST
Astronomical Twilight 5:10 AM CST 6:12 PM CST
Moon 1:29 PM CST (12/23) 2:27 AM CST (12/23)
Length of Visible Light 11h 02m
Length of Day
10h 09m
Waxing Gibbous, 82% of the Moon is Illuminated
Dec 23
Waxing Gibbous
Dec 28
Full
Jan 4
Last Quarter
Jan 11
New
Jan 18
First Quarter

Hourly Weather History & Observations

Time (CST) Temp. Dew Point Humidity Pressure Visibility Wind Dir Wind Speed Gust Speed Precip Events Conditions
12:15 AM 51.8 °F 35.6 °F 54% 30.25 in 10.0 mi South 4.6 mph - N/A   Clear
12:35 AM 51.8 °F 35.6 °F 54% 30.24 in 10.0 mi SSE 3.5 mph - N/A   Clear
12:55 AM 51.8 °F 37.4 °F 58% 30.23 in 10.0 mi South 3.5 mph - N/A   Clear
1:15 AM 53.6 °F 37.4 °F 54% 30.23 in 10.0 mi SE 4.6 mph - N/A   Clear
1:35 AM 53.6 °F 37.4 °F 54% 30.22 in 10.0 mi SE 5.8 mph - N/A   Clear
1:55 AM 53.6 °F 37.4 °F 54% 30.22 in 10.0 mi Calm Calm - N/A   Clear
2:15 AM 53.6 °F 39.2 °F 58% 30.21 in 10.0 mi SE 3.5 mph - N/A   Clear
2:35 AM 53.6 °F 39.2 °F 58% 30.22 in 10.0 mi ESE 3.5 mph - N/A   Partly Cloudy
2:55 AM 53.6 °F 39.2 °F 58% 30.22 in 10.0 mi Calm Calm - N/A   Scattered Clouds
3:15 AM 55.4 °F 39.2 °F 54% 30.21 in 10.0 mi SE 3.5 mph - N/A   Partly Cloudy
3:35 AM 55.4 °F 39.2 °F 54% 30.20 in 10.0 mi ESE 3.5 mph - N/A   Clear
3:55 AM 55.4 °F 39.2 °F 54% 30.20 in 10.0 mi SE 3.5 mph - N/A   Clear
4:15 AM 55.4 °F 41.0 °F 58% 30.19 in 10.0 mi SE 5.8 mph - N/A   Clear
4:35 AM 55.4 °F 41.0 °F 58% 30.20 in 10.0 mi SSE 4.6 mph - N/A   Clear
4:55 AM 55.4 °F 41.0 °F 58% 30.21 in 10.0 mi SSE 3.5 mph - N/A   Unknown
5:15 AM 55.4 °F 42.8 °F 63% 30.20 in 10.0 mi SSE 4.6 mph - N/A   Clear
5:35 AM 55.4 °F 42.8 °F 63% 30.20 in 10.0 mi Calm Calm - N/A   Clear
6:15 AM 55.4 °F 44.6 °F 67% 30.21 in 10.0 mi Calm Calm - N/A   Scattered Clouds
6:35 AM 57.2 °F 44.6 °F 63% 30.22 in 10.0 mi Calm Calm - N/A   Partly Cloudy
6:55 AM 55.4 °F 42.8 °F 63% 30.22 in 10.0 mi Calm Calm - N/A   Clear
7:15 AM 57.2 °F 44.6 °F 63% 30.21 in 10.0 mi ESE 4.6 mph - N/A   Partly Cloudy
7:35 AM 57.2 °F 42.8 °F 59% 30.21 in 10.0 mi ESE 5.8 mph - N/A   Scattered Clouds
7:55 AM 57.2 °F 42.8 °F 59% 30.21 in 10.0 mi SE 6.9 mph - N/A   Mostly Cloudy
8:15 AM 57.2 °F 44.6 °F 63% 30.21 in 10.0 mi SE 6.9 mph - N/A   Partly Cloudy
8:35 AM 55.4 °F 44.6 °F 67% 30.21 in 10.0 mi SE 5.8 mph - N/A   Scattered Clouds
8:55 AM 55.4 °F 44.6 °F 67% 30.21 in 10.0 mi SE 3.5 mph - N/A   Partly Cloudy
9:15 AM 57.2 °F 46.4 °F 67% 30.20 in 10.0 mi ESE 5.8 mph - N/A   Scattered Clouds
9:35 AM 57.2 °F 46.4 °F 67% 30.20 in 10.0 mi ESE 4.6 mph - N/A   Mostly Cloudy
9:55 AM 57.2 °F 46.4 °F 67% 30.21 in 10.0 mi SE 3.5 mph - N/A   Mostly Cloudy
10:15 AM 57.2 °F 48.2 °F 72% 30.19 in 10.0 mi ESE 4.6 mph - N/A   Overcast
10:35 AM 59.0 °F 48.2 °F 67% 30.19 in 10.0 mi Calm Calm - N/A   Scattered Clouds
11:15 AM 60.8 °F 50.0 °F 68% 30.17 in 10.0 mi Calm Calm - N/A   Partly Cloudy
11:35 AM 60.8 °F 51.8 °F 72% 30.16 in 10.0 mi SSE 3.5 mph - N/A   Clear
11:55 AM 62.6 °F 51.8 °F 68% 30.14 in 10.0 mi SE 5.8 mph - N/A   Clear
12:15 PM 64.4 °F 51.8 °F 64% 30.12 in 10.0 mi SSE 8.1 mph - N/A   Partly Cloudy
12:35 PM 64.4 °F 53.6 °F 68% 30.11 in 10.0 mi South 9.2 mph 16.1 mph N/A   Mostly Cloudy
12:55 PM 64.4 °F 53.6 °F 68% 30.10 in 10.0 mi South 9.2 mph 17.3 mph N/A   Mostly Cloudy
1:15 PM 66.2 °F 53.6 °F 64% 30.09 in 10.0 mi SSE 9.2 mph - N/A   Scattered Clouds
1:35 PM 66.2 °F 53.6 °F 64% 30.08 in 10.0 mi South 10.4 mph 19.6 mph N/A   Scattered Clouds
1:55 PM 66.2 °F 55.4 °F 68% 30.07 in 10.0 mi South 12.7 mph 17.3 mph N/A   Scattered Clouds
2:15 PM 66.2 °F 55.4 °F 68% 30.07 in 10.0 mi South 9.2 mph 17.3 mph N/A   Scattered Clouds
2:35 PM 66.2 °F 53.6 °F 64% 30.07 in 10.0 mi South 8.1 mph 18.4 mph N/A   Overcast
2:55 PM 66.2 °F 53.6 °F 64% 30.06 in 10.0 mi South 12.7 mph 16.1 mph N/A   Overcast
3:15 PM 66.2 °F 55.4 °F 68% 30.06 in 10.0 mi South 10.4 mph 16.1 mph N/A   Overcast
3:35 PM 66.2 °F 55.4 °F 68% 30.06 in 10.0 mi South 9.2 mph - N/A   Overcast
3:55 PM 68.0 °F 55.4 °F 64% 30.05 in 10.0 mi South 8.1 mph - N/A   Overcast
4:15 PM 66.2 °F 55.4 °F 68% 30.05 in 10.0 mi South 9.2 mph - N/A   Scattered Clouds
4:35 PM 66.2 °F 55.4 °F 68% 30.04 in 10.0 mi South 9.2 mph - N/A   Scattered Clouds
4:55 PM 66.2 °F 55.4 °F 68% 30.04 in 10.0 mi South 9.2 mph - N/A   Overcast
5:15 PM 66.2 °F 55.4 °F 68% 30.03 in 10.0 mi South 9.2 mph - N/A   Overcast
5:35 PM 66.2 °F 55.4 °F 68% 30.04 in 10.0 mi South 8.1 mph - N/A   Overcast
5:55 PM 64.4 °F 55.4 °F 73% 30.04 in 10.0 mi South 9.2 mph - N/A   Mostly Cloudy
6:15 PM 64.4 °F 55.4 °F 73% 30.04 in 10.0 mi South 10.4 mph - N/A   Overcast
6:35 PM 64.4 °F 55.4 °F 73% 30.04 in 10.0 mi South 10.4 mph - N/A   Overcast
6:55 PM 64.4 °F 55.4 °F 73% 30.03 in 10.0 mi South 11.5 mph - N/A   Overcast
7:15 PM 64.4 °F 55.4 °F 73% 30.03 in 10.0 mi South 11.5 mph - N/A   Overcast
7:35 PM 64.4 °F 55.4 °F 73% 30.03 in 10.0 mi South 9.2 mph - N/A   Overcast
7:55 PM 64.4 °F 55.4 °F 73% 30.03 in 10.0 mi South 11.5 mph - N/A   Overcast
8:15 PM 64.4 °F 55.4 °F 73% 30.03 in 10.0 mi South 10.4 mph - N/A   Overcast
8:55 PM 64.4 °F 57.2 °F 77% 30.03 in 10.0 mi South 10.4 mph 18.4 mph N/A   Overcast
9:15 PM 64.4 °F 57.2 °F 77% 30.03 in 10.0 mi South 9.2 mph 17.3 mph N/A   Overcast
9:35 PM 64.4 °F 57.2 °F 77% 30.03 in 10.0 mi South 9.2 mph - N/A   Overcast
9:55 PM 64.4 °F 57.2 °F 77% 30.03 in 10.0 mi South 9.2 mph - N/A   Overcast
10:15 PM 64.4 °F 57.2 °F 77% 30.02 in 10.0 mi South 8.1 mph - N/A   Overcast
10:35 PM 66.2 °F 57.2 °F 73% 30.01 in 10.0 mi South 10.4 mph - N/A   Mostly Cloudy
10:55 PM 66.2 °F 59.0 °F 78% 30.01 in 10.0 mi South 10.4 mph 17.3 mph N/A   Partly Cloudy
11:15 PM 66.2 °F 59.0 °F 78% 30.01 in 10.0 mi SSW 9.2 mph - N/A   Scattered Clouds
11:35 PM 66.2 °F 59.0 °F 78% 30.00 in 10.0 mi South 10.4 mph - N/A   Overcast
11:55 PM 66.2 °F 60.8 °F 83% 30.00 in 10.0 mi South 9.2 mph 16.1 mph N/A   Overcast